Bluefield, WV

6:48 PM EST on December 08, 2019 (GMT -0500)
Mercer County

Weather History for KBLF - May, 2019

Change the Weather History Date:

Thursday, May 23, 2019

  Actual Average Record
Temperature  
Mean Temperature 71 °F 64 °F  
Max Temperature 78 °F 73 °F 89 °F (1941)
Min Temperature 63 °F 55 °F 35 °F (1963)
Degree Days  
Heating Degree Days 0 3  
Month to date heating degree days 81 115  
Since 1 July heating degree days 4854 4545  
Cooling Degree Days 6 3  
Month to date cooling degree days 35 38  
Year to date cooling degree days 40 66  
Growing Degree Days 20 (Base 50)    
Moisture  
Dew Point 60 °F    
Average Humidity 71    
Maximum Humidity 84    
Minimum Humidity 58    
Precipitation  
Precipitation 0.00 in 0.15 in 1.30 in (1973)
Month to date precipitation 4.31 3.11  
Year to date precipitation 18.01 15.62  
Snow  
Snow 0.00 in - - ()
Month to date snowfall 0.0  
Since 1 July snowfall 30.8  
Snow Depth 0.00 in    
Sea Level Pressure  
Sea Level Pressure 30.16 in    
Wind  
Wind Speed 8 mph (WSW)    
Max Wind Speed 20 mph    
Max Gust Speed 28 mph    
Visibility 10 miles    
Events      
T = Trace of Precipitation, MM = Missing Value Source: NWS Daily Summary

Daily Weather History Graph

Daily Weather History Graph

Search for Another Location

Airport or City:

Astronomy

May. 23, 2019 Rise Set
Actual Time 6:10 AM EDT 8:33 PM EDT
Civil Twilight 5:40 AM EDT 9:02 PM EDT
Nautical Twilight 5:04 AM EDT 9:39 PM EDT
Astronomical Twilight 4:23 AM EDT 10:20 PM EDT
Moon 12:14 AM EDT (5/23) 10:12 AM EDT (5/23)
Length of Visible Light 15h 22m
Length of Day
14h 22m
Waning Gibbous, 77% of the Moon is Illuminated
May 23
Waning Gibbous
May 26
Last Quarter
Jun 3
New
Jun 10
First Quarter
Jun 17
Full

Hourly Weather History & Observations

Time (EDT) Temp. Dew Point Humidity Pressure Visibility Wind Dir Wind Speed Gust Speed Precip Events Conditions
12:52 AM 63.0 °F 57.9 °F 84% 30.19 in 10.0 mi Variable 5.8 mph - N/A   Scattered Clouds
1:52 AM 64.0 °F 57.9 °F 80% 30.17 in 10.0 mi Variable 5.8 mph - N/A   Mostly Cloudy
2:52 AM 64.0 °F 59.0 °F 84% 30.16 in 10.0 mi Variable 5.8 mph - N/A   Clear
3:52 AM 64.9 °F 59.0 °F 81% 30.16 in 10.0 mi SSW 5.8 mph - N/A   Scattered Clouds
4:52 AM 64.9 °F 59.0 °F 81% 30.17 in 10.0 mi SSW 5.8 mph - N/A   Clear
5:52 AM 64.9 °F 59.0 °F 81% 30.17 in 10.0 mi SSW 4.6 mph - N/A   Scattered Clouds
6:52 AM 64.9 °F 59.0 °F 81% 30.19 in 10.0 mi SW 3.5 mph - N/A   Clear
7:52 AM 66.9 °F 60.1 °F 79% 30.21 in 10.0 mi West 8.1 mph - N/A   Clear
8:52 AM 70.0 °F 61.0 °F 73% 30.21 in 10.0 mi West 5.8 mph - N/A   Clear
9:52 AM 73.0 °F 63.0 °F 71% 30.22 in 10.0 mi West 8.1 mph - N/A   Clear
10:52 AM 75.0 °F 62.1 °F 64% 30.21 in 10.0 mi West 15.0 mph 25.3 mph N/A   Partly Cloudy
11:52 AM 75.0 °F 60.1 °F 60% 30.22 in 10.0 mi West 11.5 mph 25.3 mph N/A   Mostly Cloudy
12:52 PM 75.9 °F 59.0 °F 56% 30.21 in 10.0 mi West 12.7 mph 19.6 mph N/A   Scattered Clouds
1:52 PM 75.0 °F 59.0 °F 57% 30.19 in 10.0 mi West 12.7 mph - N/A   Partly Cloudy
2:52 PM 75.0 °F 60.1 °F 60% 30.18 in 10.0 mi West 10.4 mph - N/A   Scattered Clouds
3:52 PM 78.1 °F 62.1 °F 58% 30.15 in 10.0 mi West 10.4 mph - N/A   Mostly Cloudy
4:52 PM 75.0 °F 61.0 °F 62% 30.13 in 10.0 mi West 8.1 mph - N/A   Mostly Cloudy
5:52 PM 77.0 °F 62.1 °F 60% 30.12 in 10.0 mi West 9.2 mph - N/A   Scattered Clouds
6:52 PM 75.0 °F 62.1 °F 64% 30.10 in 10.0 mi West 6.9 mph - N/A   Scattered Clouds
7:52 PM 73.9 °F 61.0 °F 64% 30.11 in 10.0 mi West 9.2 mph - N/A   Mostly Cloudy
8:52 PM 72.0 °F 60.1 °F 66% 30.11 in 10.0 mi WSW 6.9 mph - N/A   Partly Cloudy
9:52 PM 70.0 °F 60.1 °F 71% 30.11 in 10.0 mi WSW 8.1 mph - N/A   Clear
10:52 PM 69.1 °F 60.1 °F 73% 30.13 in 10.0 mi WSW 6.9 mph - N/A   Clear
11:52 PM 66.9 °F 60.1 °F 79% 30.12 in 10.0 mi WSW 6.9 mph - N/A   Clear